This is the latest recevied weather packets stored in our database for station/object K7SPS-10. If no packets are shown the sender has not sent any weather packets the latest 10 day(s).
| Time | Temp. | Humidity | Pressure | Rain* | Wind** | Luminosity | Snow |
|---|---|---|---|---|---|---|---|
| 1778289360 | 26.11° C | 24% | 1014 hPa | 0 mm | - | 142 W/m² | - |
| 1778289057 | 26.67° C | 24% | 1014.2 hPa | 0 mm | - | 152 W/m² | - |
| 1778288755 | 26.67° C | 25% | 1014.4 hPa | 0 mm | - | 159 W/m² | - |
| 1778288451 | 26.11° C | 26% | 1014.5 hPa | 0 mm | - | 166 W/m² | - |
| 1778288149 | 26.11° C | 26% | 1014.3 hPa | 0 mm | - | 176 W/m² | - |
| 1778287844 | 26.11° C | 25% | 1014.4 hPa | 0 mm | - | 195 W/m² | - |
| 1778287541 | 26.11° C | 26% | 1014.4 hPa | 0 mm | - | 211 W/m² | - |
| 1778287238 | 26.11° C | 25% | 1014.3 hPa | 0 mm | - | 141 W/m² | - |
| 1778286936 | 25.56° C | 25% | 1014.2 hPa | 0 mm | - | 130 W/m² | - |
| 1778286633 | 25.56° C | 26% | 1014.3 hPa | 0 mm | - | 263 W/m² | - |
| 1778286331 | 25.56° C | 26% | 1014.4 hPa | 0 mm | - | 274 W/m² | - |
| 1778286028 | 25.56° C | 26% | 1014.2 hPa | 0 mm | - | 292 W/m² | - |
| 1778285725 | 26.11° C | 25% | 1014.4 hPa | 0 mm | - | 315 W/m² | - |
| 1778285421 | 26.11° C | 25% | 1014.5 hPa | 0 mm | - | 348 W/m² | - |
| 1778285120 | 26.11° C | 25% | 1014.6 hPa | 0 mm | - | 360 W/m² | - |
| 1778284815 | 25° C | 25% | 1014.5 hPa | 0 mm | - | 330 W/m² | - |
| 1778284514 | 25.56° C | 25% | 1014.3 hPa | 0 mm | - | 347 W/m² | - |
| 1778284209 | 25.56° C | 27% | 1014.5 hPa | 0 mm | - | 445 W/m² | - |
| 1778283907 | 25° C | 28% | 1014.4 hPa | 0 mm | - | 303 W/m² | - |
| 1778283604 | 25° C | 26% | 1014.4 hPa | 0 mm | - | 345 W/m² | - |
| 1778283303 | 25° C | 29% | 1014.5 hPa | 0 mm | - | 243 W/m² | - |
| 1778283000 | 24.44° C | 28% | 1014.7 hPa | 0 mm | - | 201 W/m² | - |
| 1778282697 | 25° C | 27% | 1014.5 hPa | 0 mm | - | 188 W/m² | - |
| 1778282394 | 25° C | 27% | 1014.3 hPa | 0 mm | - | 216 W/m² | - |
| 1778282091 | 25° C | 26% | 1014.6 hPa | 0 mm | - | 310 W/m² | - |
* Rain latest hour (hover to see other rain measurements)
** Current wind speed in m/s (hover to see current wind gust speed)